KD0RII Weather Reports


time (UTC)temp
C
wind
direction
speed
KPH
gust
KPH
rain 1hr
cm
rain 24hr
cm
rain mn
cm
humidity
%
barometer
mb
20260507180533 19 127 4.8 6.4 0.00 0.00 0.00 50 1016.4
20260507180030 20 208 8.0 11.3 0.00 0.00 0.00 49 1016.4
20260507175526 19 232 1.6 3.2 0.00 0.00 0.00 58 1016.5
20260507175025 18 210 4.8 6.4 0.00 0.00 0.00 53 1016.5
20260507174521 18 83 3.2 3.2 0.00 0.00 0.00 53 1016.9
20260507174019 18 171 3.2 3.2 0.00 0.00 0.00 54 1017.0
20260507173515 18 217 3.2 4.8 0.00 0.00 0.00 53 1017.0
20260507173013 17 141 3.2 4.8 0.00 0.00 0.00 55 1017.2
20260507172509 18 140 8.0 11.3 0.00 0.00 0.00 52 1017.0
20260507172006 19 184 4.8 4.8 0.00 0.00 0.00 51 1017.2
20260507171501 19 123 3.2 3.2 0.00 0.00 0.00 55 1017.1
20260507170959 18 134 3.2 3.2 0.00 0.00 0.00 54 1017.4
20260507170455 18 161 4.8 6.4 0.00 0.00 0.00 53 1017.4
20260507165952 18 154 3.2 6.4 0.00 0.00 0.00 52 1017.5
20260507165448 18 111 6.4 11.3 0.00 0.00 0.00 52 1017.6
20260507164944 18 172 6.4 6.4 0.00 0.00 0.00 54 1017.6
20260507164441 18 184 6.4 9.7 0.00 0.00 0.00 53 1017.5
20260507163937 18 135 6.4 9.7 0.00 0.00 0.00 53 1017.6
20260507163435 17 189 3.2 4.8 0.00 0.00 0.00 57 1017.8
20260507162932 17 339 4.8 4.8 0.00 0.00 0.00 54 1017.8
20260507162427 17 193 3.2 6.4 0.00 0.00 0.00 54 1018.0
20260507161925 17 170 6.4 9.7 0.00 0.00 0.00 55 1017.9
20260507161420 17 122 6.4 11.3 0.00 0.00 0.00 54 1018.0
20260507160918 17 129 6.4 9.7 0.00 0.00 0.00 54 1018.1
20260507160414 17 158 3.2 4.8 0.00 0.00 0.00 55 1017.9
20260507155910 17 124 0.0 1.6 0.00 0.00 0.00 57 1018.2
20260507155405 17 39 4.8 6.4 0.00 0.00 0.00 55 1017.8
20260507154903 17 265 6.4 6.4 0.00 0.00 0.00 56 1017.9
20260507154400 17 84 1.6 4.8 0.00 0.00 0.00 59 1018.0
20260507153950 17 154 3.2 3.2 0.00 0.00 0.00 56 1018.1
20260507153857 17 154 3.2 3.2 0.00 0.00 0.00 56 1018.1
20260507153618 17 195 3.2 4.8 0.00 0.00 0.00 58 1018.1
20260507153353 17 195 3.2 4.8 0.00 0.00 0.00 58 1018.1
20260507153215 17 70 6.4 9.7 0.00 0.00 0.00 57 1018.1
20260507152849 17 70 6.4 9.7 0.00 0.00 0.00 57 1018.1
20260507152553 17 127 3.2 4.8 0.00 0.00 0.00 59 1018.2
20260507152346 17 91 1.6 4.8 0.00 0.00 0.00 58 1018.2
20260507151842 17 127 3.2 4.8 0.00 0.00 0.00 59 1018.2
20260507151338 16 129 4.8 4.8 0.00 0.00 0.00 60 1018.3
20260507150836 16 116 1.6 1.6 0.00 0.00 0.00 61 1018.5
20260507150332 16 148 4.8 6.4 0.00 0.00 0.00 60 1018.4
20260507145828 16 106 1.6 1.6 0.00 0.00 0.00 62 1018.5
20260507145325 16 121 3.2 3.2 0.00 0.00 0.00 60 1018.4
20260507144822 16 142 1.6 1.6 0.00 0.00 0.00 64 1018.5
20260507144319 16 162 4.8 6.4 0.00 0.00 0.00 60 1018.4
20260507143815 16 78 1.6 3.2 0.00 0.00 0.00 62 1018.4
20260507143313 15 115 3.2 3.2 0.00 0.00 0.00 66 1018.6
20260507142809 15 249 3.2 6.4 0.00 0.00 0.00 65 1018.6
20260507142307 15 138 3.2 4.8 0.00 0.00 0.00 64 1018.6
20260507141802 15 155 3.2 3.2 0.00 0.00 0.00 65 1018.5
20260507141259 15 104 0.0 1.6 0.00 0.00 0.00 67 1018.7
20260507140755 13 98 1.6 3.2 0.00 0.00 0.00 72 1018.6
20260507140253 13 102 1.6 3.2 0.00 0.00 0.00 74 1018.7
20260507135750 12 132 3.2 4.8 0.00 0.00 0.00 80 1018.7
20260507135247 11 127 0.0 1.6 0.00 0.00 0.00 89 1018.8
20260507134743 10 218 1.6 3.2 0.00 0.00 0.00 92 1018.8
20260507134240 10 77 3.2 3.2 0.00 0.00 0.00 93 1018.7
20260507133736 10 119 0.0 1.6 0.00 0.00 0.00 94 1018.7
20260507133233 10 98 0.0 0.0 0.00 0.00 0.00 95 1018.7
20260507132730 9 103 1.6 1.6 0.00 0.00 0.00 95 1019.0
20260507132227 8 130 0.0 1.6 0.00 0.00 0.00 95 1019.0
20260507131724 8 107 0.0 0.0 0.00 0.00 0.00 95 1018.8
20260507131221 8 96 0.0 0.0 0.00 0.00 0.00 95 1018.7
20260507130717 7 97 0.0 0.0 0.00 0.00 0.00 95 1018.9
20260507130216 7 99 0.0 1.6 0.00 0.00 0.00 95 1019.0
20260507125714 7 95 0.0 0.0 0.00 0.00 0.00 95 1018.8
20260507125211 7 98 0.0 0.0 0.00 0.00 0.00 95 1018.9
20260507124707 6 103 0.0 0.0 0.00 0.00 0.00 95 1018.9
20260507124205 6 101 0.0 0.0 0.00 0.00 0.00 95 1018.9
20260507123703 5 94 0.0 0.0 0.00 0.00 0.00 94 1018.8
20260507123200 5 93 0.0 0.0 0.00 0.00 0.00 94 1018.8
20260507122655 5 92 0.0 0.0 0.00 0.00 0.00 94 1019.0
20260507122151 4 92 0.0 0.0 0.00 0.00 0.00 94 1018.9
20260507121647 3 94 0.0 0.0 0.00 0.00 0.00 94 1018.9
20260507121143 3 93 0.0 0.0 0.00 0.00 0.00 94 1018.8
20260507120640 3 92 0.0 0.0 0.00 0.00 0.00 94 1018.9
20260507120136 2 92 0.0 0.0 0.00 0.00 0.00 94 1018.8
20260507115632 2 92 0.0 0.0 0.00 0.00 0.00 94 1018.8
20260507115128 2 92 0.0 0.0 0.00 0.00 0.00 94 1019.0
20260507114624 2 92 0.0 0.0 0.00 0.00 0.00 94 1018.8
20260507114122 2 92 0.0 0.0 0.00 0.00 0.00 94 1018.7
20260507113619 2 92 0.0 0.0 0.00 0.00 0.00 94 1018.8
20260507113116 2 93 0.0 0.0 0.00 0.00 0.00 94 1018.8
20260507112614 2 92 0.0 0.0 0.00 0.00 0.00 94 1018.8
20260507112110 2 93 0.0 0.0 0.00 0.00 0.00 94 1018.6
20260507111607 2 92 0.0 0.0 0.00 0.00 0.00 94 1018.6
20260507111059 2 93 0.0 0.0 0.00 0.00 0.00 94 1018.7
20260507110555 2 92 0.0 0.0 0.00 0.00 0.00 94 1018.6
20260507110052 2 93 0.0 0.0 0.00 0.00 0.00 94 1018.5
20260507105549 2 92 0.0 0.0 0.00 0.00 0.00 94 1018.8
20260507105044 2 93 0.0 0.0 0.00 0.00 0.00 94 1018.7
20260507104542 2 93 0.0 0.0 0.00 0.00 0.00 94 1018.5
20260507104038 2 93 0.0 0.0 0.00 0.00 0.00 94 1018.6
20260507103534 2 93 0.0 0.0 0.00 0.00 0.00 94 1018.6
20260507103031 2 93 0.0 0.0 0.00 0.00 0.00 93 1018.6
20260507102528 2 92 0.0 0.0 0.00 0.00 0.00 93 1018.7
20260507102024 2 93 0.0 0.0 0.00 0.00 0.00 93 1018.7
20260507101520 2 93 0.0 0.0 0.00 0.00 0.00 93 1018.7
20260507101016 2 93 0.0 0.0 0.00 0.00 0.00 93 1018.7
20260507100514 2 93 0.0 0.0 0.00 0.00 0.00 93 1018.6
20260507100012 2 93 0.0 0.0 0.00 0.00 0.00 93 1018.9
20260507095509 2 93 0.0 0.0 0.00 0.00 0.00 93 1018.8
20260507095006 2 93 0.0 0.0 0.00 0.00 0.00 93 1018.9
20260507094502 3 93 0.0 0.0 0.00 0.00 0.00 93 1018.8
20260507093959 3 93 0.0 0.0 0.00 0.00 0.00 93 1019.0
20260507093456 3 93 0.0 0.0 0.00 0.00 0.00 93 1019.0
20260507092954 3 94 0.0 0.0 0.00 0.00 0.00 93 1019.2
20260507092451 3 95 0.0 0.0 0.00 0.00 0.00 93 1019.1
20260507091947 3 97 0.0 0.0 0.00 0.00 0.00 93 1019.0
20260507091444 3 91 0.0 0.0 0.00 0.00 0.00 93 1019.0
20260507090940 3 92 0.0 0.0 0.00 0.00 0.00 93 1019.1
20260507090436 3 92 0.0 0.0 0.00 0.00 0.00 93 1019.1
20260507085932 3 92 0.0 0.0 0.00 0.00 0.00 93 1019.0
20260507085430 3 95 0.0 0.0 0.00 0.00 0.00 93 1019.1
20260507084927 3 90 0.0 0.0 0.00 0.00 0.00 93 1019.0
20260507084424 3 90 0.0 0.0 0.00 0.00 0.00 93 1019.1
20260507083921 3 90 0.0 0.0 0.00 0.00 0.00 93 1018.9
20260507083417 3 88 0.0 0.0 0.00 0.00 0.00 92 1019.0
20260507082913 3 89 0.0 0.0 0.00 0.00 0.00 93 1019.1
20260507082409 3 88 0.0 0.0 0.00 0.00 0.00 93 1019.1
20260507081906 3 88 0.0 0.0 0.00 0.00 0.00 92 1019.1
20260507081402 3 88 0.0 0.0 0.00 0.00 0.00 92 1019.1
20260507080859 3 88 0.0 0.0 0.00 0.00 0.00 92 1019.3
20260507080355 3 88 0.0 0.0 0.00 0.00 0.00 92 1019.1
20260507075851 3 88 0.0 0.0 0.00 0.00 0.00 92 1019.2
20260507075347 3 88 0.0 0.0 0.00 0.00 0.00 92 1019.2
20260507074843 3 88 0.0 0.0 0.00 0.00 0.00 92 1019.4
20260507074341 3 88 0.0 0.0 0.00 0.00 0.00 92 1019.3
20260507073838 3 88 0.0 0.0 0.00 0.00 0.00 92 1019.4
20260507073335 3 88 0.0 0.0 0.00 0.00 0.00 92 1019.2
20260507072832 3 88 0.0 0.0 0.00 0.00 0.00 92 1019.5
20260507072329 3 88 0.0 0.0 0.00 0.00 0.00 92 1019.4
20260507071827 3 88 0.0 0.0 0.00 0.00 0.00 92 1019.5
20260507071324 3 88 0.0 0.0 0.00 0.00 0.00 92 1019.3
20260507070820 3 91 0.0 0.0 0.00 0.00 0.00 92 1019.6
20260507070318 3 90 0.0 0.0 0.00 0.00 0.00 92 1019.5
20260507065814 3 88 0.0 0.0 0.00 0.00 0.00 92 1019.6
20260507065310 4 88 0.0 0.0 0.00 0.00 0.00 92 1019.5
20260507064808 4 88 0.0 0.0 0.00 0.00 0.00 92 1019.6
20260507064307 5 88 0.0 0.0 0.00 0.00 0.00 92 1019.7
20260507063804 5 88 0.0 0.0 0.00 0.00 0.00 92 1019.8
20260507063301 5 90 0.0 0.0 0.00 0.00 0.00 92 1019.7
20260507062757 5 90 0.0 0.0 0.00 0.00 0.00 92 1019.9
20260507062254 5 87 0.0 0.0 0.00 0.00 0.00 92 1019.8
20260507061753 5 89 0.0 0.0 0.00 0.00 0.00 92 1019.8
20260507061250 5 89 0.0 0.0 0.00 0.00 0.00 92 1019.8
20260507060748 5 93 0.0 0.0 0.00 0.00 0.00 92 1019.8
20260507060244 6 92 0.0 0.0 0.00 0.00 0.00 91 1019.9
20260507055741 6 92 0.0 0.0 0.00 0.00 0.00 91 1019.9
20260507055236 6 92 0.0 0.0 0.00 0.00 0.00 91 1019.8
20260507054733 5 92 0.0 0.0 0.00 0.00 0.00 91 1019.9
20260507054230 5 95 0.0 0.0 0.00 0.00 0.00 91 1019.9
20260507053727 5 90 0.0 0.0 0.00 0.00 0.00 91 1019.9
20260507053225 5 91 0.0 0.0 0.00 0.00 0.00 91 1019.9
20260507052724 5 91 0.0 0.0 0.00 0.00 0.00 91 1019.9
20260507052219 5 91 0.0 0.0 0.00 0.00 0.00 91 1019.8
20260507051717 5 91 0.0 0.0 0.00 0.00 0.00 91 1019.8
20260507051214 5 91 0.0 0.0 0.00 0.00 0.00 91 1019.6
20260507050710 5 91 0.0 0.0 0.00 0.00 0.00 91 1020.0
20260507050208 5 92 0.0 0.0 0.00 0.00 0.00 91 1019.9
20260507045704 5 91 0.0 0.0 0.00 0.00 0.00 90 1019.9
20260507045200 5 91 0.0 0.0 0.00 0.00 0.00 90 1020.0
20260507044658 5 91 0.0 0.0 0.00 0.00 0.00 90 1020.0
20260507044154 5 91 0.0 0.0 0.00 0.00 0.00 90 1019.9
20260507043651 5 91 0.0 0.0 0.00 0.00 0.00 90 1020.0
20260507043148 5 91 0.0 0.0 0.00 0.00 0.00 90 1020.0
20260507042644 5 91 0.0 0.0 0.00 0.00 0.00 90 1020.3
20260507042139 5 91 0.0 0.0 0.00 0.00 0.00 89 1020.3
20260507041637 5 92 0.0 0.0 0.00 0.00 0.00 89 1020.2
20260507041132 5 92 0.0 0.0 0.00 0.00 0.00 89 1019.9
20260507040630 5 92 0.0 0.0 0.00 0.00 0.00 89 1020.0
20260507040121 5 93 0.0 0.0 0.00 0.28 0.28 89 1019.9
20260507035617 5 89 0.0 0.0 0.00 0.28 0.28 89 1020.2
20260507035113 6 89 0.0 0.0 0.00 0.28 0.28 89 1019.9
20260507034610 6 89 0.0 0.0 0.00 0.28 0.28 88 1020.2
20260507034108 6 89 0.0 0.0 0.00 0.28 0.28 88 1020.3
20260507033606 6 89 0.0 0.0 0.00 0.28 0.28 88 1020.4
20260507033103 6 89 0.0 0.0 0.00 0.28 0.28 88 1020.2
20260507032600 6 88 0.0 0.0 0.00 0.28 0.28 87 1020.4
20260507032056 6 88 0.0 0.0 0.00 0.28 0.28 88 1020.3
20260507031552 6 88 0.0 0.0 0.00 0.28 0.28 87 1019.9
20260507031049 6 86 0.0 0.0 0.00 0.28 0.28 85 1020.0
20260507030546 6 86 0.0 0.0 0.00 0.28 0.28 85 1020.0
20260507030044 6 86 0.0 0.0 0.00 0.28 0.28 84 1020.2
20260507025541 6 86 0.0 0.0 0.00 0.28 0.28 84 1020.0
20260507025038 6 86 0.0 0.0 0.00 0.28 0.28 83 1019.8
20260507024536 6 83 0.0 0.0 0.00 0.28 0.28 82 1019.9
20260507024027 6 83 0.0 0.0 0.00 0.28 0.28 82 1019.6
20260507023522 6 83 0.0 0.0 0.00 0.28 0.28 81 1019.8
20260507023021 6 83 0.0 0.0 0.00 0.28 0.28 80 1019.6
20260507022516 6 83 0.0 0.0 0.00 0.28 0.28 79 1019.6
20260507022006 6 83 0.0 0.0 0.00 0.28 0.28 77 1019.5
20260507021502 6 83 0.0 0.0 0.00 0.28 0.28 76 1019.7
20260507020959 6 83 0.0 0.0 0.00 0.28 0.28 74 1019.5
20260507020456 7 83 0.0 0.0 0.00 0.28 0.28 72 1019.3
20260507015953 7 83 0.0 0.0 0.00 0.28 0.28 70 1019.4
20260507015452 7 83 0.0 0.0 0.00 0.28 0.28 69 1019.3
20260507014949 7 83 0.0 0.0 0.00 0.28 0.28 67 1019.3
20260507014445 8 83 0.0 0.0 0.00 0.28 0.28 65 1019.3
20260507013941 8 83 0.0 0.0 0.00 0.28 0.28 64 1019.4
20260507013438 9 83 0.0 0.0 0.00 0.28 0.28 61 1019.2
20260507012935 10 83 0.0 0.0 0.00 0.28 0.28 60 1019.2
20260507012432 10 83 0.0 0.0 0.00 0.28 0.28 58 1019.1
20260507011928 10 83 0.0 0.0 0.00 0.28 0.28 56 1019.1
20260507011426 11 89 0.0 0.0 0.00 0.28 0.28 53 1019.3
20260507010925 11 90 0.0 0.0 0.00 0.28 0.28 52 1019.0
20260507010421 11 83 0.0 0.0 0.00 0.28 0.28 51 1019.1
20260507005918 12 83 0.0 0.0 0.00 0.28 0.28 49 1019.1
20260507005415 12 83 0.0 0.0 0.00 0.28 0.28 48 1018.9
20260507004911 13 84 0.0 0.0 0.00 0.28 0.28 47 1019.1
20260507004408 13 85 0.0 0.0 0.00 0.28 0.28 45 1019.0
20260507003906 14 64 1.6 1.6 0.00 0.28 0.28 43 1019.0
20260507003401 15 81 0.0 0.0 0.00 0.28 0.28 44 1018.8
20260507002856 15 86 0.0 0.0 0.00 0.28 0.28 42 1018.7
20260507002352 15 82 0.0 0.0 0.00 0.28 0.28 40 1018.9
20260507001850 15 70 0.0 1.6 0.00 0.28 0.28 39 1018.7
20260507001346 15 79 0.0 0.0 0.00 0.28 0.28 40 1018.8
20260507000843 15 61 1.6 1.6 0.00 0.28 0.28 41 1018.7
20260507000338 15 55 0.0 0.0 0.00 0.28 0.28 40 1018.9
20260506235835 15 76 3.2 3.2 0.00 0.28 0.28 38 1018.8
20260506235332 15 45 0.0 0.0 0.00 0.28 0.28 38 1018.9
20260506234828 15 76 1.6 4.8 0.00 0.28 0.28 38 1018.7
20260506234326 16 80 0.0 1.6 0.00 0.28 0.28 39 1018.9
20260506233824 16 23 3.2 4.8 0.00 0.28 0.28 36 1018.9
20260506233319 16 73 0.0 1.6 0.00 0.28 0.28 37 1018.8
20260506232816 17 84 0.0 0.0 0.00 0.28 0.28 38 1018.7
20260506232311 17 97 1.6 3.2 0.00 0.28 0.28 37 1018.9
20260506231809 17 53 3.2 4.8 0.00 0.28 0.28 36 1018.7
20260506231307 16 77 0.0 0.0 0.00 0.28 0.28 35 1018.9
20260506230804 17 20 4.8 4.8 0.00 0.28 0.28 36 1018.9
20260506230300 17 81 1.6 1.6 0.00 0.28 0.28 37 1018.8
20260506225756 17 41 3.2 4.8 0.00 0.28 0.28 37 1019.0
20260506225254 17 120 0.0 0.0 0.00 0.28 0.28 35 1018.8
20260506224750 16 45 3.2 4.8 0.00 0.28 0.28 34 1018.7
20260506224248 16 33 6.4 9.7 0.00 0.28 0.28 36 1018.9
20260506223744 16 75 4.8 6.4 0.00 0.28 0.28 37 1018.9
20260506223240 17 82 3.2 4.8 0.00 0.28 0.28 35 1018.7
20260506222737 17 96 0.0 0.0 0.00 0.28 0.28 39 1018.8
20260506222232 17 125 3.2 3.2 0.00 0.28 0.28 37 1018.9
20260506221730 17 82 0.0 0.0 0.00 0.28 0.28 39 1018.8
20260506221228 17 13 3.2 3.2 0.00 0.28 0.28 35 1018.7
20260506220725 17 88 0.0 0.0 0.00 0.28 0.28 38 1018.9
20260506220219 17 80 1.6 1.6 0.00 0.28 0.28 37 1018.8
20260506215717 17 77 0.0 0.0 0.00 0.28 0.28 36 1018.9
20260506215212 16 73 1.6 1.6 0.00 0.28 0.28 39 1018.9
20260506214709 16 60 3.2 4.8 0.00 0.28 0.28 35 1018.9
20260506214206 17 37 3.2 4.8 0.00 0.28 0.28 37 1018.9
20260506213705 17 70 6.4 6.4 0.00 0.28 0.28 36 1019.0
20260506213202 17 89 0.0 1.6 0.00 0.28 0.28 39 1019.2
20260506212659 17 30 3.2 4.8 0.00 0.28 0.28 37 1019.2
20260506212154 16 46 3.2 4.8 0.00 0.28 0.28 35 1019.2
20260506211650 17 87 4.8 6.4 0.00 0.28 0.28 39 1019.3
20260506211146 16 24 4.8 6.4 0.00 0.28 0.28 38 1019.2
20260506210643 17 42 3.2 4.8 0.00 0.28 0.28 35 1019.4
20260506210140 16 35 0.0 3.2 0.00 0.28 0.28 40 1019.5
20260506205637 16 73 8.0 11.3 0.00 0.28 0.28 37 1019.3
20260506205132 16 47 6.4 6.4 0.00 0.28 0.28 35 1019.6
20260506204630 16 68 1.6 3.2 0.00 0.28 0.28 38 1019.6
20260506204127 17 79 4.8 9.7 0.00 0.28 0.28 38 1019.6
20260506203625 17 70 0.0 0.0 0.00 0.28 0.28 38 1019.6
20260506203121 17 41 1.6 9.7 0.00 0.28 0.28 40 1019.7
20260506202619 16 41 6.4 6.4 0.00 0.28 0.28 38 1020.0
20260506202115 16 86 4.8 6.4 0.00 0.28 0.28 36 1019.7
20260506201612 16 58 11.3 14.5 0.00 0.28 0.28 36 1019.9
20260506201109 16 44 1.6 1.6 0.00 0.28 0.28 41 1020.0
20260506200605 16 50 3.2 4.8 0.00 0.28 0.28 42 1020.0
20260506195559 16 55 1.6 1.6 0.00 0.28 0.28 42 1019.8
20260506195055 16 95 1.6 3.2 0.00 0.28 0.28 42 1020.0
20260506194553 16 75 0.0 1.6 0.00 0.28 0.28 41 1020.2
20260506194049 16 75 3.2 3.2 0.00 0.28 0.28 42 1019.9
20260506193547 16 59 3.2 3.2 0.00 0.28 0.28 39 1020.3
20260506193044 16 92 0.0 1.6 0.00 0.28 0.28 39 1020.0
20260506192541 16 55 0.0 1.6 0.00 0.28 0.28 44 1020.3
20260506192036 16 332 6.4 9.7 0.00 0.28 0.28 41 1020.2
20260506191534 16 97 3.2 4.8 0.00 0.28 0.28 40 1020.3
20260506191029 15 13 8.0 9.7 0.00 0.28 0.28 38 1020.4
20260506190527 15 138 1.6 1.6 0.00 0.28 0.28 40 1020.0
20260506190024 16 353 8.0 14.5 0.00 0.28 0.28 39 1020.3
20260506185521 15 90 0.0 0.0 0.00 0.28 0.28 39 1020.4
20260506185017 15 18 4.8 6.4 0.00 0.28 0.28 40 1020.5
20260506184515 15 53 3.2 4.8 0.00 0.28 0.28 39 1020.6
20260506184012 16 86 1.6 1.6 0.00 0.28 0.28 40 1020.4
20260506183508 15 95 3.2 6.4 0.00 0.28 0.28 41 1020.6
20260506183005 16 339 6.4 14.5 0.00 0.28 0.28 41 1020.8
20260506182501 16 41 1.6 1.6 0.00 0.28 0.28 41 1020.5
20260506181959 15 5 3.2 4.8 0.00 0.28 0.28 39 1020.8
20260506181457 15 47 3.2 3.2 0.00 0.28 0.28 43 1020.8
20260506180948 15 77 0.0 0.0 0.00 0.28 0.28 45 1021.0